ONEWEB-0264, 48982

Orbit data source: Space-Track

ONEWEB-0264, 48982 is a payload satellite owned by One Web (NAA) (UK) in LEO that was launched on Thu, 01 Jul 2021 UTC via a SOYUZ-2-1B launch vehicle from the Vostochny Cosmodrome (VOSTO). Payload-class satellites include a variety of spacecraft equipped with specific instruments for various scientific and technological missions. These include communications satellites like Starlink; space stations such as the ISS; scientific satellites like the Hubble; Earth observation satellites from companies like Planet Labs, Umbra, and HawkEye 360; GPS; miniature CubeSats for education and research; and military/defense satellites.

Loading next visibility...
Identifier
48982, 2021-060R
Orbit
LEO
Country
Flag of UKUK
Related business
Manufacturer
One Web
Mission
Operational Commercial Communications
Bus & Motor
ARROW, Unknown motor
Mass
148 kg wet, ~140 kg dry
Launch date (UTC)
2021-07-01 (4 years ago)
Launch vehicle
SOYUZ-2-1B
Launch site
Vostochny Cosmodrome (VOSTO)
Object type
Payload
Rocket body
Debris
Shape & HBR
Trap Box + 2 Pan, 6.7 m
Radar Cross Section
3.464 m², Large (>1 m²)

Expand to show TLE details & history
Last TLE update: 19 hours ago

TLE from 19 hours ago
0 ONEWEB-0264
1 48982U 21060R   25348.81567433 -.00000065  00000-0 -20286-3 0  9993
2 48982  87.9036 265.4990 0001978  75.2439 284.8911 13.16593005215336
Epoch: 2025-12-14T19:34Z
TLE epoch observation values (Epoch: 2025-12-14T19:34:34.262Z)
Latitude
-0°
Longitude
-111.86693°
Altitude
1,200.273 km
Speed
7.254 km/s
True Right ascension
17h 41m 59s
True Declination
0° 00' 00"
Sunlit
Object was in daylight at epoch
Visualization orbit readout
Latitude
Unknown
Longitude
Unknown
Altitude
Unknown
Speed
Unknown
Apparent Right ascension
Unknown
Apparent Declination
Unknown
Sunlit
N/A
Visualization observer readout
Local Sidereal Time
13:18:52
Azimuth
Unknown
Elevation
Unknown
Doppler factor
Unknown
Orbital elements
Apogee altitude
1,196.37 km
Perigee altitude
1,193.374 km
Semi-major axis
7,573.009 km
Eccentricity
0.0002
Inclination
87.9036°
RAAN
265.499°
Arg. of periapsis
75.2439°
True anomaly
284.86919°
Mean anomaly
284.8911°
Eccentric anomaly
284.88015°
Mean motion
3.29337 °/min
Orbital period
109.31 mins
BSTAR
-0.00020286
Loading maneuver chart data...
Computing Atmospheric mass density...
Loading historical data...
Loading historical data...
Loading historical data...
Loading historical data...
Loading historical data...
Loading historical data...
Loading historical data...

Documentation

Showing up to 5 results
|